When you browse on this site, cookies collect data to enhance your experience and personalize the content and advertising you see.
Visit our Privacy Policy to learn more. By continuing to use the site, you agree to this use of cookies and data.
  • In Austria
  • List of Countries
  • For 7 days
  • Water Temperature
  • Satellite Maps
  • Weather Map
  • News
  • Weather Widgets
  • user-avatar
    Login

    Hourly Weather Rudnya

    Today, 24 May, Friday

    Time Temperature Precipitation Wind Pressure Humidity
    00:00 +16°C° 0.3 mm 1 mps 744 mmHg 83%
    01:00 +16°C° 0.3 mm 1 mps 744 mmHg 86%
    02:00 +15°C° 0.3 mm 1 mps 744 mmHg 88%
    03:00 +15°C° 0 mm 1 mps 744 mmHg 89%
    04:00 +15°C° 0 mm 1 mps 744 mmHg 89%
    05:00 +15°C° 0 mm 1 mps 744 mmHg 89%
    06:00 +18°C° 0 mm 1 mps 744 mmHg 83%
    07:00 +20°C° 0 mm 1 mps 745 mmHg 78%
    08:00 +22°C° 0 mm 1 mps 745 mmHg 72%
    09:00 +23°C° 0.8 mm 1 mps 745 mmHg 67%
    10:00 +24°C° 0.8 mm 1 mps 744 mmHg 61%
    11:00 +25°C° 0.8 mm 1 mps 744 mmHg 55%
    12:00 +26°C° 0 mm 1 mps 744 mmHg 52%
    13:00 +27°C° 0 mm 1 mps 744 mmHg 50%
    14:00 +27°C° 0 mm 1 mps 744 mmHg 47%
    15:00 +27°C° 0 mm 1 mps 744 mmHg 50%
    16:00 +24°C° 0 mm 0 mps 743 mmHg 53%
    17:00 +24°C° 0 mm 0 mps 743 mmHg 56%
    18:00 +24°C° 0.1 mm 1 mps 743 mmHg 62%
    19:00 +23°C° 0.1 mm 2 mps 743 mmHg 69%
    20:00 +20°C° 0.1 mm 2 mps 743 mmHg 76%
    21:00 +19°C° 0.6 mm 2 mps 743 mmHg 81%
    22:00 +18°C° 0.6 mm 2 mps 743 mmHg 87%
    23:00 +18°C° 0.6 mm 1 mps 743 mmHg 92%

    Tomorrow, 25 May, Saturday

    Time Temperature Precipitation Wind Pressure Humidity
    00:00 +18°C° 0.2 mm 1 mps 743 mmHg 93%
    01:00 +16°C° 0.2 mm 1 mps 743 mmHg 94%
    02:00 +16°C° 0.2 mm 2 mps 743 mmHg 95%
    03:00 +16°C° 0 mm 2 mps 743 mmHg 95%
    04:00 +16°C° 0 mm 2 mps 743 mmHg 95%
    05:00 +16°C° 0 mm 2 mps 743 mmHg 96%
    06:00 +16°C° 0 mm 2 mps 743 mmHg 93%
    07:00 +17°C° 0 mm 2 mps 743 mmHg 90%
    08:00 +18°C° 0 mm 2 mps 743 mmHg 87%
    09:00 +20°C° 0.2 mm 3 mps 743 mmHg 80%
    10:00 +21°C° 0.2 mm 4 mps 743 mmHg 74%
    11:00 +22°C° 0.2 mm 4 mps 743 mmHg 67%
    12:00 +23°C° 0.9 mm 4 mps 742 mmHg 67%
    13:00 +23°C° 0.9 mm 4 mps 742 mmHg 67%
    14:00 +23°C° 0.9 mm 4 mps 742 mmHg 67%
    15:00 +23°C° 0.2 mm 4 mps 742 mmHg 66%
    16:00 +23°C° 0.2 mm 4 mps 742 mmHg 65%
    17:00 +23°C° 0.2 mm 4 mps 742 mmHg 64%
    18:00 +21°C° 0.2 mm 4 mps 742 mmHg 69%
    19:00 +19°C° 0.2 mm 3 mps 742 mmHg 74%
    20:00 +17°C° 0.2 mm 3 mps 743 mmHg 79%
    21:00 +16°C° 0 mm 3 mps 743 mmHg 80%
    22:00 +15°C° 0 mm 2 mps 743 mmHg 80%
    23:00 +14°C° 0 mm 2 mps 743 mmHg 80%

    Day after tomorrow, 26 May, Sunday

    Time Temperature Precipitation Wind Pressure Humidity
    00:00 +14°C° 0 mm 2 mps 743 mmHg 83%
    01:00 +13°C° 0 mm 2 mps 744 mmHg 86%
    02:00 +13°C° 0 mm 2 mps 744 mmHg 89%
    03:00 +13°C° 0 mm 2 mps 744 mmHg 91%
    04:00 +13°C° 0 mm 2 mps 744 mmHg 92%
    05:00 +13°C° 0 mm 2 mps 745 mmHg 93%
    06:00 +15°C° 0 mm 2 mps 745 mmHg 86%
    07:00 +16°C° 0 mm 2 mps 745 mmHg 80%
    08:00 +18°C° 0 mm 3 mps 745 mmHg 73%
    09:00 +18°C° 0 mm 3 mps 745 mmHg 68%
    10:00 +19°C° 0 mm 3 mps 745 mmHg 64%
    11:00 +20°C° 0 mm 4 mps 745 mmHg 59%
    12:00 +20°C° 0 mm 4 mps 745 mmHg 57%
    13:00 +21°C° 0 mm 4 mps 745 mmHg 55%
    14:00 +22°C° 0 mm 4 mps 745 mmHg 52%
    15:00 +22°C° 0 mm 4 mps 745 mmHg 52%
    16:00 +22°C° 0 mm 4 mps 745 mmHg 51%
    17:00 +22°C° 0 mm 4 mps 745 mmHg 51%
    18:00 +21°C° 0 mm 3 mps 745 mmHg 57%
    19:00 +19°C° 0 mm 2 mps 745 mmHg 63%
    20:00 +17°C° 0 mm 2 mps 745 mmHg 70%
    21:00 +17°C° 0 mm 2 mps 745 mmHg 75%
    22:00 +16°C° 0 mm 3 mps 745 mmHg 80%
    23:00 +16°C° 0 mm 3 mps 745 mmHg 85%

    27 May, Monday

    Time Temperature Precipitation Wind Pressure Humidity
    00:00 +14°C° 0 mm 3 mps 745 mmHg 88%
    01:00 +14°C° 0 mm 3 mps 746 mmHg 92%
    02:00 +13°C° 0 mm 3 mps 746 mmHg 96%
    03:00 +13°C° 0 mm 3 mps 746 mmHg 96%
    04:00 +13°C° 0 mm 2 mps 746 mmHg 96%
    05:00 +13°C° 0 mm 2 mps 747 mmHg 97%
    06:00 +15°C° 0 mm 2 mps 747 mmHg 86%
    07:00 +16°C° 0 mm 2 mps 747 mmHg 76%
    08:00 +18°C° 0 mm 2 mps 748 mmHg 66%
    09:00 +20°C° 0 mm 2 mps 748 mmHg 60%
    10:00 +21°C° 0 mm 3 mps 748 mmHg 55%
    11:00 +24°C° 0 mm 3 mps 748 mmHg 49%
    12:00 +24°C° 0 mm 3 mps 748 mmHg 48%
    13:00 +25°C° 0 mm 3 mps 747 mmHg 47%
    14:00 +26°C° 0 mm 3 mps 747 mmHg 47%
    15:00 +26°C° 0 mm 3 mps 747 mmHg 51%
    16:00 +25°C° 0 mm 3 mps 747 mmHg 56%
    17:00 +25°C° 0 mm 3 mps 746 mmHg 61%
    18:00 +22°C° 0.1 mm 3 mps 746 mmHg 69%
    19:00 +21°C° 0.1 mm 2 mps 746 mmHg 77%
    20:00 +20°C° 0.1 mm 2 mps 746 mmHg 85%
    21:00 +19°C° 0.4 mm 2 mps 746 mmHg 88%
    22:00 +18°C° 0.4 mm 2 mps 746 mmHg 90%
    23:00 +18°C° 0.4 mm 2 mps 746 mmHg 93%

    28 May, Tuesday

    Time Temperature Precipitation Wind Pressure Humidity
    00:00 +18°C° 0 mm 2 mps 746 mmHg 93%
    01:00 +17°C° 0 mm 2 mps 746 mmHg 93%
    02:00 +17°C° 0 mm 2 mps 746 mmHg 93%
    03:00 +17°C° 0.1 mm 2 mps 746 mmHg 94%
    04:00 +17°C° 0.1 mm 2 mps 746 mmHg 94%
    05:00 +17°C° 0.1 mm 2 mps 746 mmHg 95%
    06:00 +18°C° 0 mm 3 mps 746 mmHg 90%
    07:00 +20°C° 0 mm 3 mps 746 mmHg 86%
    08:00 +21°C° 0 mm 4 mps 746 mmHg 81%
    09:00 +22°C° 0 mm 5 mps 746 mmHg 76%
    10:00 +23°C° 0 mm 5 mps 746 mmHg 70%
    11:00 +24°C° 0 mm 6 mps 746 mmHg 64%
    12:00 +26°C° 0 mm 6 mps 746 mmHg 58%
    13:00 +27°C° 0 mm 6 mps 745 mmHg 53%
    14:00 +28°C° 0 mm 6 mps 745 mmHg 47%
    15:00 +28°C° 0 mm 6 mps 745 mmHg 50%
    16:00 +28°C° 0 mm 6 mps 745 mmHg 53%
    17:00 +27°C° 0 mm 5 mps 745 mmHg 55%
    18:00 +25°C° 0 mm 5 mps 745 mmHg 62%
    19:00 +23°C° 0 mm 4 mps 745 mmHg 69%
    20:00 +21°C° 0 mm 3 mps 745 mmHg 75%
    21:00 +21°C° 0 mm 3 mps 745 mmHg 78%
    22:00 +20°C° 0 mm 4 mps 745 mmHg 80%
    23:00 +19°C° 0 mm 4 mps 745 mmHg 83%

    29 May, Wednesday

    Time Temperature Precipitation Wind Pressure Humidity
    00:00 +19°C° 0 mm 4 mps 745 mmHg 80%
    01:00 +18°C° 0 mm 4 mps 745 mmHg 78%
    02:00 +18°C° 0 mm 4 mps 744 mmHg 76%
    03:00 +17°C° 0 mm 4 mps 744 mmHg 75%
    04:00 +17°C° 0 mm 4 mps 744 mmHg 73%
    05:00 +17°C° 0 mm 4 mps 744 mmHg 72%
    06:00 +16°C° 0.4 mm 5 mps 744 mmHg 74%
    07:00 +17°C° 0.4 mm 5 mps 744 mmHg 75%
    08:00 +19°C° 0.4 mm 5 mps 745 mmHg 77%
    09:00 +21°C° 0 mm 5 mps 745 mmHg 72%
    10:00 +23°C° 0 mm 5 mps 745 mmHg 67%
    11:00 +26°C° 0 mm 5 mps 745 mmHg 62%
    12:00 +27°C° 0 mm 5 mps 745 mmHg 59%
    13:00 +28°C° 0 mm 5 mps 745 mmHg 57%
    14:00 +29°C° 0 mm 5 mps 745 mmHg 55%
    15:00 +28°C° 1 mm 5 mps 745 mmHg 61%
    16:00 +27°C° 1 mm 4 mps 744 mmHg 68%
    17:00 +26°C° 1 mm 4 mps 744 mmHg 75%
    18:00 +25°C° 1 mm 3 mps 745 mmHg 78%
    19:00 +22°C° 1 mm 3 mps 745 mmHg 82%
    20:00 +21°C° 1 mm 2 mps 745 mmHg 86%
    21:00 +20°C° 0 mm 2 mps 745 mmHg 87%
    22:00 +20°C° 0 mm 2 mps 745 mmHg 89%
    23:00 +19°C° 0 mm 2 mps 746 mmHg 91%
    Show more